Weather reports worldwide

Advertisment
Drumalbin, United Kingdom (3155): temperature & dewpoint: 04.07.2020 10:00:00 - 10.07.2020 10:00:00 (BST)Drumalbin, United Kingdom (3155): temperature -20cm & temperature -100cm: 04.07.2020 10:00:00 - 10.07.2020 10:00:00 (BST)Drumalbin, United Kingdom (3155): wind speed & gusts: 04.07.2020 10:00:00 - 10.07.2020 10:00:00 (BST)Drumalbin, United Kingdom (3155): wind direction: 04.07.2020 10:00:00 - 10.07.2020 10:00:00 (BST)Drumalbin, United Kingdom (3155): reduced air pressure: 04.07.2020 10:00:00 - 10.07.2020 10:00:00 (BST)Drumalbin, United Kingdom (3155): visibility: 04.07.2020 10:00:00 - 10.07.2020 10:00:00 (BST)Drumalbin, United Kingdom (3155): precipitation: 04.07.2020 10:00:00 - 10.07.2020 10:00:00 (BST)
Date & Time tt [°C] td [°C] tt -20cm [°C] tt -100cm [°C] ff [km/h] ff [kn] fx [km/h] fx [kn] dd ppp [hPa] vv [km] rr [mm]
10.07.2020 10:00:00 12,6 10,0 - - 15 8 - - NNW 1016,6 55 0,0
10.07.2020 09:00:00 11,4 10,9 - - 15 8 - - NNW 1016,4 50 0,0
10.07.2020 08:00:00 9,4 9,2 - - 13 7 - - NW 1016,1 30 0,0
10.07.2020 07:00:00 8,7 8,6 - - 8 4 - - W 1015,6 19 5,0
10.07.2020 06:00:00 9,0 8,9 - - 5 3 - - N 1015,2 12 0,4
10.07.2020 05:00:00 8,3 8,1 - - 5 3 - - W 1014,6 12 0,4
10.07.2020 04:00:00 8,0 7,8 - - 8 4 - - W 1014,6 30 0,0
10.07.2020 03:00:00 6,8 6,5 - - 9 5 - - SW 1014,6 35 0,0
10.07.2020 02:00:00 6,9 6,5 - - 9 5 - - SW 1014,6 30 0,0
10.07.2020 01:00:00 7,4 7,0 - - 13 7 - - SW 1014,8 25 0,2
10.07.2020 00:00:00 7,6 6,5 - - 8 4 - - SSW 1014,7 30 0,0
09.07.2020 23:00:00 8,5 7,2 - - 9 5 - - SW 1014,6 35 0,0
09.07.2020 22:00:00 9,6 7,5 - - 11 6 - - WSW 1014,1 35 0,0
09.07.2020 21:00:00 11,8 9,1 - - 11 6 - - W 1013,7 35 0,0
09.07.2020 20:00:00 13,0 10,4 - - 9 5 - - NNW 1013,3 40 0,0
09.07.2020 19:00:00 13,3 11,8 - - 11 6 - - SSW 1013,1 35 1,4
09.07.2020 18:00:00 11,5 10,0 - - 13 7 - - S 1013,4 45 4,4
09.07.2020 17:00:00 13,8 9,7 - - 24 13 - - W 1013,3 12 0,0
09.07.2020 16:00:00 16,9 8,4 - - 8 4 - - SSW 1013,0 35 0,0
09.07.2020 15:00:00 17,4 7,6 - - 4 2 - - S 1013,1 45 0,0
09.07.2020 14:00:00 16,0 7,4 - - 4 2 - - ENE 1013,7 55 0,0
09.07.2020 13:00:00 15,4 8,4 - - 4 2 - - NNW 1013,9 45 0,0
09.07.2020 12:00:00 14,9 7,6 - - 5 3 - - NW 1013,8 45 0,0
09.07.2020 11:00:00 15,1 9,3 - - 8 4 - - NW 1013,5 55 0,0
09.07.2020 10:00:00 14,4 7,8 13,7 11,9 4 2 - - SSE 1013,5 50 0,0
09.07.2020 09:00:00 13,1 8,7 - - 5 3 - - ESE 1013,5 45 0,0
09.07.2020 08:00:00 11,8 9,3 - - 9 5 - - E 1013,6 40 0,0
09.07.2020 07:00:00 9,4 8,7 - - 9 5 - - ESE 1013,5 24 0,0
09.07.2020 06:00:00 8,7 8,3 - - 9 5 - - ESE 1013,4 19 0,0
09.07.2020 05:00:00 9,5 8,9 - - 5 3 - - E 1013,2 18 0,0
09.07.2020 04:00:00 10,0 9,2 - - 8 4 - - E 1013,0 27 0,0
09.07.2020 03:00:00 10,0 9,2 - - 5 3 - - ENE 1013,2 17 0,0
09.07.2020 02:00:00 10,1 9,1 - - 8 4 - - ESE 1013,2 27 0,0
09.07.2020 01:00:00 10,6 9,4 - - 5 3 - - ESE 1013,4 30 0,0
09.07.2020 00:00:00 10,9 9,4 - - 5 3 - - ESE 1013,7 30 0,0
08.07.2020 23:00:00 11,3 9,5 - - 5 3 - - E 1013,7 35 0,0
08.07.2020 22:00:00 11,6 9,8 - - 8 4 - - ESE 1013,7 40 0,0
08.07.2020 21:00:00 11,9 10,1 - - 8 4 - - ESE 1013,6 40 0,0
08.07.2020 20:00:00 12,1 10,3 - - 13 7 - - E 1013,9 40 0,0
08.07.2020 19:00:00 12,3 10,6 - - 13 7 - - ESE 1014,2 40 0,0
08.07.2020 18:00:00 11,9 9,8 - - 15 8 - - SSE 1014,5 28 1,4
08.07.2020 17:00:00 14,3 8,9 - - 9 5 - - S 1014,5 40 0,0
08.07.2020 16:00:00 14,7 8,9 - - 8 4 - - S 1014,9 45 0,0
08.07.2020 15:00:00 14,7 9,2 - - 11 6 - - SSW 1015,1 40 0,0
08.07.2020 14:00:00 15,2 9,4 - - 8 4 - - ESE 1015,0 45 0,0
08.07.2020 13:00:00 14,8 9,4 - - 9 5 - - E 1015,3 50 0,0
08.07.2020 12:00:00 13,7 8,2 - - 4 2 - - NE 1015,6 60 0,0
08.07.2020 11:00:00 14,3 9,3 - - 9 5 - - E 1015,6 40 0,0
08.07.2020 10:00:00 12,8 9,3 13,4 11,9 9 5 - - E 1015,6 45 0,0
08.07.2020 09:00:00 11,2 9,0 - - 9 5 - - E 1015,9 35 0,0
08.07.2020 08:00:00 10,8 9,4 - - 11 6 - - E 1015,6 30 0,0
08.07.2020 07:00:00 10,1 9,5 - - 8 4 - - E 1015,5 19 0,0
08.07.2020 06:00:00 9,4 8,8 - - 4 2 - - ESE 1015,1 15 0,0
08.07.2020 05:00:00 9,7 9,3 - - 5 3 - - E 1014,9 16 0,0
08.07.2020 04:00:00 9,4 9,2 - - 8 4 - - E 1015,0 7 0,0
08.07.2020 03:00:00 8,9 8,7 - - 5 3 - - E 1015,1 7 0,0
08.07.2020 02:00:00 7,7 7,2 - - 8 4 - - NE 1015,6 8 0,0
08.07.2020 01:00:00 9,3 8,5 - - 2 1 - - SW 1015,3 30 0,0
08.07.2020 00:00:00 9,3 8,3 - - 4 2 - - SSW 1015,0 30 0,0
07.07.2020 23:00:00 9,7 8,7 - - 5 3 - - SSW 1015,0 35 0,0
07.07.2020 22:00:00 10,4 9,2 - - 5 3 - - WSW 1014,7 30 0,0
07.07.2020 21:00:00 11,4 9,3 - - 11 6 - - SW 1014,6 30 0,0
07.07.2020 20:00:00 13,0 9,0 - - 4 2 - - WSW 1014,2 40 0,0
07.07.2020 19:00:00 13,3 9,6 - - 4 2 - - WSW 1014,5 40 0,0
07.07.2020 18:00:00 12,8 10,2 - - 4 2 - - W 1014,7 35 0,0
07.07.2020 17:00:00 12,4 10,5 - - 9 5 - - NNW 1015,1 - 0,2
07.07.2020 16:00:00 13,3 9,3 - - 11 6 - - N 1015,2 - 0,0
07.07.2020 15:00:00 14,5 8,9 - - 13 7 - - WNW 1015,1 - 0,0
07.07.2020 14:00:00 14,2 9,6 - - 13 7 - - WNW 1015,6 - 0,0
07.07.2020 13:00:00 12,8 9,0 - - 9 5 - - W 1015,9 - 0,0
07.07.2020 12:00:00 11,4 8,1 - - 15 8 - - W 1016,4 - 0,0
07.07.2020 11:00:00 11,2 8,6 - - 15 8 - - W 1016,7 - 0,0
07.07.2020 10:00:00 10,3 8,5 13,4 12,0 16 9 - - WSW 1016,9 - 0,0
07.07.2020 09:00:00 9,9 9,0 - - 13 7 - - WSW 1017,1 - 0,0
07.07.2020 08:00:00 9,9 8,9 - - 15 8 - - W 1017,3 - 0,0
07.07.2020 07:00:00 9,5 8,6 - - 16 9 - - W 1017,4 - 0,0
07.07.2020 06:00:00 9,3 8,4 - - 15 8 - - W 1017,8 - 0,0
07.07.2020 05:00:00 9,1 8,4 - - 18 10 - - W 1018,0 - 0,0
07.07.2020 04:00:00 8,9 8,1 - - 15 8 - - WSW 1018,5 - 0,0
07.07.2020 03:00:00 8,7 7,7 - - 18 10 - - W 1019,0 - 0,0
07.07.2020 02:00:00 8,9 7,2 - - 24 13 - - W 1019,3 - 0,0
07.07.2020 01:00:00 9,5 8,1 - - 26 14 - - W 1019,5 - 0,0
07.07.2020 00:00:00 9,2 7,8 - - 26 14 - - W 1019,5 - 0,0
06.07.2020 23:00:00 9,6 7,9 - - 16 9 - - WSW 1019,6 - 0,0
06.07.2020 22:00:00 9,3 7,0 - - 24 13 - - W 1020,0 - 0,0
06.07.2020 21:00:00 9,9 7,0 - - 31 17 - - W 1019,8 - 0,0
06.07.2020 20:00:00 10,8 6,7 - - 28 15 - - WNW 1019,6 - 0,0
06.07.2020 19:00:00 11,1 7,1 - - 34 18 50 27 W 1019,6 - 0,0
06.07.2020 18:00:00 12,9 6,5 - - 34 18 50 27 W 1019,3 - 0,0
06.07.2020 17:00:00 12,9 6,7 - - 31 17 - - WNW 1019,4 - 0,0
06.07.2020 16:00:00 13,0 7,3 - - 31 17 - - W 1019,0 - 0,0
06.07.2020 15:00:00 14,5 8,8 - - 26 14 - - WNW 1018,4 - 0,0
06.07.2020 14:00:00 13,3 7,3 - - 28 15 - - WNW 1018,2 - 0,0
06.07.2020 13:00:00 13,9 7,1 - - 24 13 - - NW 1017,4 - 0,0
06.07.2020 12:00:00 12,8 7,7 - - 26 14 - - NW 1016,6 - 0,0
06.07.2020 11:00:00 13,7 9,3 - - 24 13 - - WNW 1015,5 - 0,0
06.07.2020 10:00:00 11,7 8,4 13,5 12,0 18 10 - - NW 1015,1 - 0,0
06.07.2020 09:00:00 11,2 8,4 - - 21 11 - - NW 1014,3 - 0,0
06.07.2020 08:00:00 10,8 8,2 - - 24 13 - - NW 1013,0 - 0,0
06.07.2020 07:00:00 9,5 8,1 - - 21 11 - - WNW 1011,7 - 0,0
06.07.2020 06:00:00 9,1 8,1 - - 21 11 - - WNW 1010,4 - 0,0
06.07.2020 05:00:00 9,3 8,6 - - 22 12 - - WNW 1008,9 - 0,0
06.07.2020 04:00:00 9,7 8,9 - - 28 15 - - W 1007,7 - 0,0
06.07.2020 03:00:00 9,6 8,8 - - 28 15 46 25 W 1007,3 - 0,0
06.07.2020 02:00:00 9,6 8,3 - - 34 18 46 25 W 1006,8 - 0,0
06.07.2020 01:00:00 9,1 7,9 - - 34 18 48 26 W 1006,4 - 0,0
06.07.2020 00:00:00 9,1 8,0 - - 31 17 48 26 W 1005,6 - 0,0
05.07.2020 23:00:00 9,1 7,8 - - 29 16 - - W 1004,8 - 0,0
05.07.2020 22:00:00 9,3 7,8 - - 29 16 46 25 W 1003,9 - 0,0
05.07.2020 21:00:00 10,4 9,0 - - 26 14 - - W 1002,6 - 0,0
05.07.2020 20:00:00 10,4 8,8 - - 31 17 - - WNW 1001,4 - 0,8
05.07.2020 19:00:00 10,3 8,6 - - 29 16 - - W 1000,5 - 0,2
05.07.2020 18:00:00 9,8 8,6 - - 28 15 46 25 W 1000,3 - 0,8
05.07.2020 17:00:00 10,0 8,2 - - 35 19 63 34 WSW 1000,8 - 0,0
05.07.2020 16:00:00 11,7 9,3 - - 34 18 59 32 W 1000,5 - 1,2
05.07.2020 15:00:00 10,7 9,0 - - 31 17 59 32 W 1000,5 - 0,6
05.07.2020 14:00:00 10,9 9,6 - - 31 17 50 27 W 1000,3 - 1,4
05.07.2020 13:00:00 9,6 8,8 - - 28 15 61 33 W 1000,7 - 1,8
05.07.2020 12:00:00 11,6 7,6 - - 37 20 59 32 WSW 1000,3 - 0,0
05.07.2020 11:00:00 10,8 8,4 - - 34 18 61 33 WSW 1000,4 0,1 0,0
05.07.2020 10:00:00 11,0 8,2 13,7 12,0 42 23 61 33 W 1000,2 - 0,0
05.07.2020 09:00:00 9,7 8,8 - - 29 16 59 32 W 999,8 0,1 0,2
05.07.2020 08:00:00 10,4 9,4 - - 28 15 46 25 W 998,7 0,1 0,0
05.07.2020 07:00:00 10,9 10,3 - - 26 14 54 29 W 997,2 0,3 0,0
05.07.2020 06:00:00 10,5 9,9 - - 35 19 65 35 W 996,1 0,2 0,0
05.07.2020 05:00:00 11,2 9,8 - - 50 27 70 38 W 994,7 0,4 0,0
05.07.2020 04:00:00 11,3 10,1 - - 50 27 74 40 W 994,3 0,3 0,0
05.07.2020 03:00:00 12,7 11,7 - - 50 27 74 40 W 993,0 45 1,0
05.07.2020 02:00:00 14,1 13,6 - - 41 22 61 33 WSW 991,8 3,8 1,0
05.07.2020 01:00:00 14,4 13,9 - - 29 16 52 28 WSW 992,2 6 0,4
05.07.2020 00:00:00 14,5 14,0 - - 31 17 55 30 SW 993,1 6 1,2
04.07.2020 23:00:00 14,1 13,5 - - 42 23 57 31 SSW 993,7 2,3 0,2
04.07.2020 22:00:00 13,6 13,0 - - 26 14 - - S 995,7 4,3 0,4
04.07.2020 21:00:00 13,3 12,4 - - 26 14 - - S 997,7 28 0,0
04.07.2020 20:00:00 13,4 11,9 - - 11 6 - - SSW 999,6 45 0,0
04.07.2020 19:00:00 13,2 11,4 - - 9 5 - - WSW 1001,3 45 0,0
04.07.2020 18:00:00 13,3 10,6 - - 16 9 - - WSW 1002,3 45 0,0
04.07.2020 17:00:00 12,9 10,6 - - 21 11 - - W 1003,2 45 0,0
04.07.2020 16:00:00 12,9 10,5 - - 24 13 - - WSW 1003,6 50 0,0
04.07.2020 15:00:00 12,6 11,2 - - 22 12 - - W 1004,0 55 0,2
04.07.2020 14:00:00 12,4 11,3 - - 24 13 - - W 1003,9 14 0,0
04.07.2020 13:00:00 12,7 11,9 - - 15 8 - - W 1003,4 40 0,0
04.07.2020 12:00:00 11,8 11,2 - - 15 8 - - W 1004,1 13 0,6
04.07.2020 11:00:00 11,8 11,0 - - 13 7 - - WSW 1003,7 19 0,0
04.07.2020 10:00:00 11,9 10,4 13,7 12,0 11 6 - - WSW 1003,4 26 0,0

tt = temperature
td = dewpoint
tt -20cm = temperature -20cm
tt -100cm = temperature -100cm
ff = wind speed
fx = gusts
dd = wind direction
ppp = reduced air pressure
vv = visibility
rr = precipitation

Next stations